| time (UTC) | temp F | wind direction | speed MPH | gust MPH | rain 1hr in | rain 24hr in | rain mn in | humidity % | barometer mb |
| 20260902211020 | 85 | 69 | 4.0 | 10.0 | 0.00 | 0.00 | 0.00 | 71 | 1019.7 |
| 20260902210520 | 85 | 13 | 4.0 | 9.0 | 0.00 | 0.00 | 0.00 | 71 | 1019.8 |
| 20260902210019 | 85 | 81 | 4.0 | 13.0 | 0.00 | 0.00 | 0.00 | 71 | 1019.8 |
| 20260902205514 | 85 | 68 | 3.0 | 7.0 | 0.00 | 0.00 | 0.00 | 71 | 1019.8 |
| 20260902205009 | 85 | 96 | 8.0 | 9.0 | 0.00 | 0.00 | 0.00 | 72 | 1019.8 |
| 20260902204509 | 85 | 98 | 11.0 | 13.0 | 0.00 | 0.00 | 0.00 | 71 | 1020.0 |
| 20260902204004 | 85 | 72 | 7.0 | 14.0 | 0.00 | 0.00 | 0.00 | 72 | 1019.9 |
| 20260902203500 | 85 | 84 | 4.0 | 8.0 | 0.00 | 0.00 | 0.00 | 72 | 1019.9 |
| 20260902202958 | 85 | 85 | 4.0 | 7.0 | 0.00 | 0.00 | 0.00 | 72 | 1019.7 |
| 20260902202454 | 85 | 99 | 3.0 | 7.0 | 0.00 | 0.00 | 0.00 | 71 | 1019.7 |
| 20260902201951 | 85 | 60 | 4.0 | 9.0 | 0.00 | 0.00 | 0.00 | 72 | 1019.8 |
| 20260902201446 | 84 | 42 | 2.0 | 3.0 | 0.00 | 0.00 | 0.00 | 74 | 1019.9 |
| 20260902200946 | 83 | 54 | 2.0 | 4.0 | 0.00 | 0.00 | 0.00 | 74 | 1019.8 |
| 20260902200441 | 82 | 69 | 3.0 | 4.0 | 0.00 | 0.00 | 0.00 | 75 | 1019.9 |
| 20260902195936 | 82 | 281 | 1.0 | 6.0 | 0.00 | 0.00 | 0.00 | 76 | 1019.9 |
| 20260902195432 | 81 | 8 | 6.0 | 7.0 | 0.00 | 0.00 | 0.00 | 76 | 1020.3 |
| 20260902194932 | 81 | 24 | 5.0 | 7.0 | 0.00 | 0.00 | 0.00 | 76 | 1020.3 |
| 20260902194426 | 81 | 8 | 5.0 | 6.0 | 0.00 | 0.00 | 0.00 | 76 | 1020.3 |
| 20260902193920 | 81 | 7 | 5.0 | 7.0 | 0.00 | 0.00 | 0.00 | 76 | 1020.2 |
| 20260902193417 | 82 | 359 | 4.0 | 6.0 | 0.00 | 0.00 | 0.00 | 75 | 1020.5 |
| 20260902192915 | 82 | 222 | 1.0 | 4.0 | 0.00 | 0.00 | 0.00 | 77 | 1020.4 |
| 20260902192414 | 82 | 65 | 1.0 | 3.0 | 0.00 | 0.00 | 0.00 | 77 | 1020.4 |
| 20260902191913 | 82 | 59 | 3.0 | 4.0 | 0.00 | 0.00 | 0.00 | 77 | 1020.3 |
| 20260902191409 | 82 | 55 | 3.0 | 6.0 | 0.00 | 0.00 | 0.00 | 77 | 1020.4 |
| 20260902190904 | 82 | 315 | 2.0 | 3.0 | 0.00 | 0.00 | 0.00 | 76 | 1020.3 |
| 20260902190404 | 82 | 54 | 3.0 | 3.0 | 0.00 | 0.00 | 0.00 | 76 | 1020.4 |
| 20260902185900 | 82 | 226 | 1.0 | 1.0 | 0.00 | 0.00 | 0.00 | 77 | 1020.6 |
| 20260902185356 | 82 | 46 | 4.0 | 6.0 | 0.00 | 0.00 | 0.00 | 76 | 1020.7 |
| 20260902184851 | 83 | 107 | 3.0 | 6.0 | 0.00 | 0.00 | 0.00 | 77 | 1021.0 |
| 20260902184346 | 82 | 290 | 2.0 | 6.0 | 0.00 | 0.00 | 0.00 | 77 | 1020.7 |
| 20260902183842 | 82 | 305 | 1.0 | 2.0 | 0.00 | 0.00 | 0.00 | 76 | 1020.7 |
| 20260902183338 | 83 | 246 | 0.0 | 4.0 | 0.00 | 0.00 | 0.00 | 75 | 1020.7 |
| 20260902182834 | 83 | 125 | 4.0 | 4.0 | 0.00 | 0.00 | 0.00 | 76 | 1020.9 |
| 20260902182330 | 83 | 125 | 4.0 | 4.0 | 0.00 | 0.00 | 0.00 | 76 | 1020.7 |
| 20260902181826 | 83 | 84 | 2.0 | 2.0 | 0.00 | 0.00 | 0.00 | 75 | 1020.9 |
| 20260902181321 | 83 | 84 | 2.0 | 2.0 | 0.00 | 0.00 | 0.00 | 75 | 1020.6 |
| 20260902180815 | 83 | 98 | 3.0 | 4.0 | 0.00 | 0.00 | 0.00 | 75 | 1020.6 |
| 20260902180311 | 83 | 72 | 4.0 | 8.0 | 0.00 | 0.00 | 0.00 | 74 | 1020.8 |
| 20260902175806 | 83 | 59 | 2.0 | 4.0 | 0.00 | 0.00 | 0.00 | 74 | 1020.4 |
| 20260902175307 | 82 | 99 | 5.0 | 7.0 | 0.00 | 0.00 | 0.00 | 74 | 1020.7 |
| 20260902174757 | 84 | 17 | 8.0 | 8.0 | 0.00 | 0.00 | 0.00 | 72 | 1020.5 |
| 20260902174253 | 84 | 84 | 7.0 | 9.0 | 0.00 | 0.00 | 0.00 | 74 | 1020.7 |
| 20260902173748 | 83 | 82 | 3.0 | 8.0 | 0.00 | 0.00 | 0.00 | 74 | 1020.6 |
| 20260902173243 | 83 | 59 | 5.0 | 8.0 | 0.00 | 0.00 | 0.00 | 74 | 1020.6 |
| 20260902172738 | 83 | 90 | 4.0 | 7.0 | 0.00 | 0.00 | 0.00 | 74 | 1021.0 |
| 20260902172237 | 84 | 126 | 5.0 | 9.0 | 0.00 | 0.00 | 0.00 | 75 | 1021.1 |
| 20260902171732 | 84 | 77 | 9.0 | 11.0 | 0.00 | 0.00 | 0.00 | 75 | 1021.2 |
| 20260902171227 | 84 | 74 | 7.0 | 14.0 | 0.00 | 0.00 | 0.00 | 75 | 1021.4 |
| 20260902170724 | 84 | 102 | 11.0 | 13.0 | 0.00 | 0.00 | 0.00 | 74 | 1021.3 |
| 20260902170219 | 84 | 99 | 11.0 | 15.0 | 0.00 | 0.00 | 0.00 | 74 | 1021.2 |
| 20260902165714 | 84 | 197 | 5.0 | 9.0 | 0.00 | 0.00 | 0.00 | 75 | 1021.2 |
| 20260902165209 | 84 | 146 | 10.0 | 14.0 | 0.00 | 0.00 | 0.00 | 73 | 1021.3 |
| 20260902164708 | 85 | 128 | 7.0 | 13.0 | 0.00 | 0.00 | 0.00 | 72 | 1021.3 |
| 20260902164203 | 86 | 135 | 8.0 | 13.0 | 0.00 | 0.00 | 0.00 | 71 | 1021.1 |
| 20260902163658 | 86 | 131 | 8.0 | 11.0 | 0.00 | 0.00 | 0.00 | 70 | 1021.2 |
| 20260902163157 | 88 | 115 | 11.0 | 17.0 | 0.00 | 0.00 | 0.00 | 67 | 1021.0 |
| 20260902162655 | 91 | 165 | 12.0 | 17.0 | 0.00 | 0.00 | 0.00 | 64 | 1021.2 |
| 20260902162150 | 90 | 95 | 14.0 | 17.0 | 0.00 | 0.00 | 0.00 | 64 | 1021.5 |
| 20260902161645 | 91 | 151 | 11.0 | 13.0 | 0.00 | 0.00 | 0.00 | 62 | 1021.5 |
| 20260902161141 | 91 | 109 | 9.0 | 14.0 | 0.00 | 0.00 | 0.00 | 62 | 1021.7 |
| 20260902160638 | 91 | 157 | 7.0 | 10.0 | 0.00 | 0.00 | 0.00 | 62 | 1021.5 |
| 20260902160132 | 90 | 133 | 8.0 | 11.0 | 0.00 | 0.00 | 0.00 | 63 | 1021.6 |
| 20260902155630 | 91 | 118 | 14.0 | 21.0 | 0.00 | 0.00 | 0.00 | 59 | 1021.6 |
| 20260902155129 | 91 | 106 | 9.0 | 16.0 | 0.00 | 0.00 | 0.00 | 58 | 1021.7 |
| 20260902154624 | 91 | 148 | 12.0 | 18.0 | 0.00 | 0.00 | 0.00 | 59 | 1021.7 |
| 20260902154119 | 89 | 95 | 6.0 | 18.0 | 0.00 | 0.00 | 0.00 | 62 | 1021.9 |
| 20260902153619 | 90 | 112 | 13.0 | 16.0 | 0.00 | 0.00 | 0.00 | 59 | 1022.1 |
| 20260902153114 | 90 | 137 | 7.0 | 13.0 | 0.00 | 0.00 | 0.00 | 62 | 1021.9 |
| 20260902152610 | 90 | 126 | 10.0 | 16.0 | 0.00 | 0.00 | 0.00 | 62 | 1021.9 |
| 20260902152105 | 89 | 128 | 12.0 | 17.0 | 0.00 | 0.00 | 0.00 | 60 | 1021.8 |
| 20260902151601 | 92 | 107 | 13.0 | 18.0 | 0.00 | 0.00 | 0.00 | 60 | 1022.0 |
| 20260902151100 | 90 | 58 | 9.0 | 21.0 | 0.00 | 0.00 | 0.00 | 61 | 1022.0 |
| 20260902150555 | 90 | 137 | 9.0 | 16.0 | 0.00 | 0.00 | 0.00 | 61 | 1022.3 |
| 20260902150051 | 91 | 97 | 11.0 | 15.0 | 0.00 | 0.00 | 0.00 | 59 | 1022.2 |
| 20260902145540 | 91 | 233 | 7.0 | 14.0 | 0.00 | 0.00 | 0.00 | 59 | 1022.3 |
| 20260902145040 | 91 | 121 | 12.0 | 17.0 | 0.00 | 0.00 | 0.00 | 57 | 1022.4 |
| 20260902144537 | 91 | 104 | 11.0 | 17.0 | 0.00 | 0.00 | 0.00 | 59 | 1022.5 |
| 20260902144032 | 93 | 153 | 9.0 | 15.0 | 0.00 | 0.00 | 0.00 | 55 | 1022.4 |
| 20260902143531 | 92 | 38 | 8.0 | 13.0 | 0.00 | 0.00 | 0.00 | 55 | 1022.4 |
| 20260902143027 | 92 | 118 | 11.0 | 16.0 | 0.00 | 0.00 | 0.00 | 56 | 1022.2 |
| 20260902142522 | 91 | 129 | 8.0 | 14.0 | 0.00 | 0.00 | 0.00 | 60 | 1022.3 |
| 20260902142018 | 91 | 147 | 10.0 | 13.0 | 0.00 | 0.00 | 0.00 | 60 | 1022.5 |
| 20260902141519 | 90 | 102 | 11.0 | 21.0 | 0.00 | 0.00 | 0.00 | 59 | 1022.1 |
| 20260902141014 | 90 | 136 | 10.0 | 16.0 | 0.00 | 0.00 | 0.00 | 59 | 1022.3 |
| 20260902140514 | 91 | 39 | 11.0 | 15.0 | 0.00 | 0.00 | 0.00 | 58 | 1022.3 |
| 20260902140009 | 90 | 97 | 10.0 | 14.0 | 0.00 | 0.00 | 0.00 | 60 | 1022.2 |
| 20260902135503 | 90 | 113 | 11.0 | 17.0 | 0.00 | 0.00 | 0.00 | 61 | 1022.2 |
| 20260902135003 | 89 | 141 | 10.0 | 13.0 | 0.00 | 0.00 | 0.00 | 62 | 1022.3 |
| 20260902134500 | 90 | 91 | 11.0 | 16.0 | 0.00 | 0.00 | 0.00 | 60 | 1022.2 |
| 20260902133959 | 90 | 112 | 9.0 | 11.0 | 0.00 | 0.00 | 0.00 | 61 | 1022.3 |
| 20260902133454 | 90 | 78 | 10.0 | 14.0 | 0.00 | 0.00 | 0.00 | 61 | 1022.3 |
| 20260902132949 | 89 | 103 | 9.0 | 13.0 | 0.00 | 0.00 | 0.00 | 62 | 1022.2 |
| 20260902132444 | 88 | 242 | 2.0 | 8.0 | 0.00 | 0.00 | 0.00 | 65 | 1022.4 |
| 20260902131939 | 89 | 100 | 8.0 | 13.0 | 0.00 | 0.00 | 0.00 | 64 | 1022.1 |
| 20260902131435 | 88 | 123 | 7.0 | 11.0 | 0.00 | 0.00 | 0.00 | 62 | 1022.3 |
| 20260902130935 | 88 | 106 | 11.0 | 13.0 | 0.00 | 0.00 | 0.00 | 64 | 1022.4 |
| 20260902130432 | 88 | 103 | 10.0 | 13.0 | 0.00 | 0.00 | 0.00 | 63 | 1022.2 |
| 20260902125931 | 89 | 155 | 5.0 | 11.0 | 0.00 | 0.00 | 0.00 | 63 | 1022.1 |
| 20260902125427 | 88 | 90 | 4.0 | 10.0 | 0.00 | 0.00 | 0.00 | 64 | 1022.2 |
| 20260902124923 | 89 | 106 | 8.0 | 14.0 | 0.00 | 0.00 | 0.00 | 62 | 1022.2 |
| 20260902124420 | 87 | 115 | 9.0 | 11.0 | 0.00 | 0.00 | 0.00 | 64 | 1022.1 |
| 20260902123920 | 87 | 119 | 7.0 | 14.0 | 0.00 | 0.00 | 0.00 | 64 | 1022.0 |
| 20260902123416 | 87 | 119 | 7.0 | 13.0 | 0.00 | 0.00 | 0.00 | 65 | 1022.1 |
| 20260902122914 | 87 | 87 | 9.0 | 13.0 | 0.00 | 0.00 | 0.00 | 65 | 1021.8 |
| 20260902122410 | 86 | 147 | 7.0 | 8.0 | 0.00 | 0.00 | 0.00 | 66 | 1022.0 |
| 20260902121906 | 86 | 112 | 11.0 | 15.0 | 0.00 | 0.00 | 0.00 | 66 | 1021.9 |
| 20260902121401 | 86 | 92 | 14.0 | 15.0 | 0.00 | 0.00 | 0.00 | 65 | 1021.8 |
| 20260902120855 | 86 | 118 | 9.0 | 14.0 | 0.00 | 0.00 | 0.00 | 65 | 1021.5 |
| 20260902120353 | 86 | 122 | 7.0 | 8.0 | 0.00 | 0.00 | 0.00 | 65 | 1021.6 |
| 20260902115852 | 86 | 88 | 8.0 | 11.0 | 0.00 | 0.00 | 0.00 | 65 | 1021.4 |
| 20260902115348 | 85 | 118 | 7.0 | 8.0 | 0.00 | 0.00 | 0.00 | 67 | 1021.5 |
| 20260902114844 | 85 | 100 | 9.0 | 11.0 | 0.00 | 0.00 | 0.00 | 67 | 1021.4 |
| 20260902114340 | 84 | 100 | 9.0 | 10.0 | 0.00 | 0.00 | 0.00 | 68 | 1021.3 |
| 20260902113839 | 84 | 66 | 9.0 | 11.0 | 0.00 | 0.00 | 0.00 | 69 | 1021.3 |
| 20260902113335 | 84 | 154 | 8.0 | 13.0 | 0.00 | 0.00 | 0.00 | 70 | 1021.2 |
| 20260902112834 | 83 | 104 | 5.0 | 7.0 | 0.00 | 0.00 | 0.00 | 71 | 1021.3 |
| 20260902112331 | 83 | 113 | 5.0 | 10.0 | 0.00 | 0.00 | 0.00 | 71 | 1021.2 |
| 20260902111826 | 83 | 47 | 3.0 | 4.0 | 0.00 | 0.00 | 0.00 | 72 | 1020.9 |
| 20260902111323 | 83 | 63 | 7.0 | 8.0 | 0.00 | 0.00 | 0.00 | 71 | 1020.9 |
| 20260902110818 | 82 | 109 | 3.0 | 9.0 | 0.00 | 0.00 | 0.00 | 72 | 1020.8 |
| 20260902110314 | 82 | 106 | 8.0 | 13.0 | 0.00 | 0.00 | 0.00 | 72 | 1020.9 |
| 20260902105814 | 82 | 81 | 6.0 | 9.0 | 0.00 | 0.00 | 0.00 | 73 | 1020.9 |
| 20260902105309 | 81 | 52 | 8.0 | 11.0 | 0.00 | 0.00 | 0.00 | 74 | 1020.8 |
| 20260902104804 | 81 | 69 | 6.0 | 11.0 | 0.00 | 0.00 | 0.00 | 75 | 1021.0 |
| 20260902104301 | 81 | 66 | 9.0 | 11.0 | 0.00 | 0.00 | 0.00 | 75 | 1020.8 |
| 20260902103755 | 80 | 79 | 6.0 | 10.0 | 0.00 | 0.00 | 0.00 | 75 | 1020.6 |
| 20260902103254 | 80 | 62 | 8.0 | 9.0 | 0.00 | 0.00 | 0.00 | 76 | 1020.6 |
| 20260902102750 | 80 | 63 | 6.0 | 10.0 | 0.00 | 0.00 | 0.00 | 76 | 1020.7 |
| 20260902102247 | 80 | 65 | 5.0 | 8.0 | 0.00 | 0.00 | 0.00 | 76 | 1020.8 |
| 20260902101742 | 80 | 85 | 9.0 | 10.0 | 0.00 | 0.00 | 0.00 | 76 | 1020.6 |
| 20260902101237 | 80 | 87 | 8.0 | 9.0 | 0.00 | 0.00 | 0.00 | 76 | 1020.6 |
| 20260902100736 | 80 | 90 | 9.0 | 10.0 | 0.00 | 0.00 | 0.00 | 76 | 1020.5 |
| 20260902100232 | 80 | 73 | 7.0 | 10.0 | 0.00 | 0.00 | 0.00 | 76 | 1020.6 |
| 20260902095731 | 80 | 68 | 6.0 | 13.0 | 0.00 | 0.00 | 0.00 | 76 | 1020.6 |
| 20260902095226 | 80 | 70 | 4.0 | 11.0 | 0.00 | 0.00 | 0.00 | 76 | 1020.5 |
| 20260902094720 | 80 | 70 | 5.0 | 9.0 | 0.00 | 0.00 | 0.00 | 76 | 1020.4 |
| 20260902094217 | 80 | 92 | 7.0 | 9.0 | 0.00 | 0.00 | 0.00 | 76 | 1020.4 |
| 20260902093716 | 80 | 49 | 6.0 | 8.0 | 0.00 | 0.00 | 0.00 | 76 | 1020.3 |
| 20260902093212 | 79 | 66 | 6.0 | 8.0 | 0.00 | 0.00 | 0.00 | 76 | 1020.2 |
| 20260902092711 | 80 | 80 | 9.0 | 10.0 | 0.00 | 0.00 | 0.00 | 76 | 1020.6 |
| 20260902092207 | 80 | 86 | 8.0 | 13.0 | 0.00 | 0.00 | 0.00 | 76 | 1020.4 |
| 20260902091700 | 80 | 60 | 9.0 | 11.0 | 0.00 | 0.00 | 0.00 | 76 | 1020.4 |
| 20260902091157 | 80 | 72 | 8.0 | 11.0 | 0.00 | 0.00 | 0.00 | 76 | 1020.3 |
| 20260902090653 | 80 | 82 | 6.0 | 11.0 | 0.00 | 0.00 | 0.00 | 76 | 1020.2 |
| 20260902090152 | 80 | 110 | 6.0 | 14.0 | 0.00 | 0.00 | 0.00 | 76 | 1020.2 |
| 20260902085652 | 80 | 95 | 9.0 | 13.0 | 0.00 | 0.00 | 0.00 | 76 | 1020.2 |
| 20260902085147 | 80 | 86 | 9.0 | 14.0 | 0.00 | 0.00 | 0.00 | 76 | 1020.1 |
| 20260902084643 | 80 | 62 | 8.0 | 11.0 | 0.00 | 0.00 | 0.00 | 75 | 1020.2 |
| 20260902084139 | 80 | 74 | 9.0 | 13.0 | 0.00 | 0.00 | 0.00 | 75 | 1020.1 |
| 20260902083634 | 80 | 79 | 10.0 | 15.0 | 0.00 | 0.00 | 0.00 | 75 | 1020.1 |
| 20260902083133 | 80 | 96 | 6.0 | 10.0 | 0.00 | 0.00 | 0.00 | 75 | 1020.2 |
| 20260902082629 | 80 | 103 | 8.0 | 14.0 | 0.00 | 0.00 | 0.00 | 75 | 1020.0 |
| 20260902082126 | 80 | 95 | 7.0 | 13.0 | 0.00 | 0.00 | 0.00 | 75 | 1020.2 |
| 20260902081622 | 80 | 79 | 9.0 | 15.0 | 0.00 | 0.00 | 0.00 | 75 | 1020.2 |
| 20260902081122 | 80 | 121 | 7.0 | 15.0 | 0.00 | 0.00 | 0.00 | 75 | 1020.2 |
| 20260902080617 | 80 | 91 | 10.0 | 14.0 | 0.00 | 0.00 | 0.00 | 75 | 1020.2 |
| 20260902080114 | 80 | 80 | 11.0 | 15.0 | 0.00 | 0.00 | 0.00 | 75 | 1020.3 |
| 20260902075613 | 80 | 267 | 4.0 | 16.0 | 0.00 | 0.00 | 0.00 | 74 | 1020.3 |
| 20260902075109 | 80 | 60 | 5.0 | 11.0 | 0.00 | 0.00 | 0.00 | 74 | 1020.0 |
| 20260902074604 | 80 | 94 | 6.0 | 13.0 | 0.00 | 0.00 | 0.00 | 74 | 1020.3 |
| 20260902074059 | 80 | 96 | 7.0 | 11.0 | 0.00 | 0.00 | 0.00 | 74 | 1020.3 |
| 20260902073554 | 80 | 83 | 7.0 | 9.0 | 0.00 | 0.00 | 0.00 | 73 | 1020.3 |
| 20260902073051 | 80 | 66 | 7.0 | 9.0 | 0.00 | 0.00 | 0.00 | 74 | 1020.3 |
| 20260902072547 | 80 | 73 | 7.0 | 10.0 | 0.00 | 0.00 | 0.00 | 74 | 1020.4 |
| 20260902072043 | 80 | 79 | 9.0 | 15.0 | 0.00 | 0.00 | 0.00 | 74 | 1020.5 |
| 20260902071542 | 80 | 107 | 6.0 | 13.0 | 0.00 | 0.00 | 0.00 | 74 | 1020.4 |
| 20260902071039 | 80 | 101 | 6.0 | 10.0 | 0.00 | 0.00 | 0.00 | 74 | 1020.3 |
| 20260902070534 | 80 | 80 | 6.0 | 10.0 | 0.00 | 0.00 | 0.00 | 74 | 1020.3 |
| 20260902070029 | 80 | 76 | 7.0 | 13.0 | 0.00 | 0.00 | 0.00 | 74 | 1020.3 |
| 20260902065523 | 80 | 82 | 11.0 | 13.0 | 0.00 | 0.00 | 0.00 | 75 | 1020.3 |
| 20260902065018 | 80 | 70 | 5.0 | 11.0 | 0.00 | 0.00 | 0.00 | 75 | 1020.5 |
| 20260902064514 | 80 | 64 | 10.0 | 15.0 | 0.00 | 0.00 | 0.00 | 75 | 1020.4 |
| 20260902064009 | 80 | 95 | 8.0 | 14.0 | 0.00 | 0.00 | 0.00 | 75 | 1020.7 |
| 20260902063509 | 80 | 72 | 6.0 | 11.0 | 0.00 | 0.00 | 0.00 | 75 | 1020.7 |
| 20260902063004 | 80 | 96 | 9.0 | 13.0 | 0.00 | 0.00 | 0.00 | 75 | 1020.6 |
| 20260902062502 | 80 | 56 | 8.0 | 13.0 | 0.00 | 0.00 | 0.00 | 75 | 1020.7 |
| 20260902061958 | 80 | 100 | 4.0 | 16.0 | 0.00 | 0.00 | 0.00 | 75 | 1020.7 |
| 20260902061453 | 80 | 86 | 10.0 | 11.0 | 0.00 | 0.00 | 0.00 | 75 | 1020.6 |
| 20260902060949 | 80 | 56 | 6.0 | 16.0 | 0.00 | 0.00 | 0.00 | 76 | 1020.9 |
| 20260902060445 | 80 | 86 | 8.0 | 13.0 | 0.00 | 0.00 | 0.00 | 76 | 1020.5 |
| 20260902055942 | 80 | 74 | 6.0 | 10.0 | 0.00 | 0.00 | 0.00 | 76 | 1020.7 |
| 20260902055437 | 80 | 32 | 5.0 | 14.0 | 0.00 | 0.00 | 0.00 | 76 | 1020.9 |
| 20260902054932 | 80 | 79 | 6.0 | 13.0 | 0.00 | 0.00 | 0.00 | 76 | 1021.0 |
| 20260902054427 | 80 | 87 | 6.0 | 13.0 | 0.00 | 0.00 | 0.00 | 76 | 1020.7 |
| 20260902053923 | 80 | 75 | 11.0 | 13.0 | 0.00 | 0.00 | 0.00 | 76 | 1021.0 |
| 20260902053418 | 80 | 61 | 9.0 | 17.0 | 0.00 | 0.00 | 0.00 | 76 | 1021.0 |
| 20260902052917 | 80 | 92 | 9.0 | 15.0 | 0.00 | 0.00 | 0.00 | 76 | 1021.2 |
| 20260902052412 | 80 | 98 | 9.0 | 17.0 | 0.00 | 0.00 | 0.00 | 77 | 1021.2 |
| 20260902051907 | 80 | 81 | 9.0 | 17.0 | 0.00 | 0.00 | 0.00 | 77 | 1021.2 |
| 20260902051402 | 80 | 83 | 7.0 | 13.0 | 0.00 | 0.00 | 0.00 | 77 | 1021.3 |
| 20260902050901 | 80 | 69 | 9.0 | 13.0 | 0.00 | 0.00 | 0.00 | 78 | 1021.1 |
| 20260902050400 | 80 | 12 | 6.0 | 15.0 | 0.00 | 0.00 | 0.00 | 79 | 1021.2 |
| 20260902045856 | 80 | 102 | 9.0 | 13.0 | 0.00 | 0.00 | 0.00 | 79 | 1021.3 |
| 20260902045351 | 80 | 80 | 7.0 | 10.0 | 0.00 | 0.00 | 0.00 | 80 | 1021.3 |
| 20260902044848 | 80 | 74 | 9.0 | 13.0 | 0.00 | 0.00 | 0.00 | 81 | 1021.2 |
| 20260902044343 | 80 | 68 | 8.0 | 10.0 | 0.00 | 0.00 | 0.00 | 81 | 1021.3 |
| 20260902043843 | 80 | 80 | 8.0 | 10.0 | 0.00 | 0.00 | 0.00 | 82 | 1021.6 |
| 20260902043338 | 80 | 79 | 8.0 | 9.0 | 0.00 | 0.00 | 0.00 | 82 | 1021.3 |
| 20260902042833 | 80 | 112 | 9.0 | 11.0 | 0.00 | 0.00 | 0.00 | 82 | 1021.6 |
| 20260902042332 | 80 | 99 | 8.0 | 10.0 | 0.00 | 0.00 | 0.00 | 81 | 1021.6 |
| 20260902041828 | 80 | 76 | 8.0 | 10.0 | 0.00 | 0.00 | 0.00 | 81 | 1021.4 |
| 20260902041327 | 80 | 78 | 9.0 | 10.0 | 0.00 | 0.00 | 0.00 | 81 | 1021.4 |
| 20260902040826 | 80 | 83 | 6.0 | 9.0 | 0.00 | 0.00 | 0.00 | 81 | 1021.6 |
| 20260902040322 | 80 | 83 | 7.0 | 9.0 | 0.00 | 0.00 | 0.00 | 81 | 1021.6 |
| 20260902035820 | 80 | 117 | 8.0 | 10.0 | 0.00 | 0.00 | 0.00 | 81 | 1021.6 |
| 20260902035316 | 80 | 111 | 4.0 | 10.0 | 0.00 | 0.00 | 0.00 | 81 | 1021.7 |
| 20260902034815 | 80 | 120 | 6.0 | 11.0 | 0.00 | 0.00 | 0.00 | 81 | 1021.6 |
| 20260902034310 | 80 | 126 | 5.0 | 11.0 | 0.00 | 0.00 | 0.00 | 81 | 1021.6 |
| 20260902033808 | 80 | 99 | 5.0 | 11.0 | 0.00 | 0.00 | 0.00 | 82 | 1021.6 |
| 20260902033304 | 80 | 127 | 4.0 | 9.0 | 0.00 | 0.00 | 0.00 | 82 | 1021.5 |
| 20260902032802 | 80 | 106 | 6.0 | 11.0 | 0.00 | 0.00 | 0.00 | 82 | 1021.7 |
| 20260902032257 | 80 | 53 | 9.0 | 11.0 | 0.00 | 0.00 | 0.00 | 81 | 1021.6 |
| 20260902031757 | 80 | 118 | 5.0 | 10.0 | 0.00 | 0.00 | 0.00 | 81 | 1021.7 |
| 20260902031253 | 80 | 92 | 8.0 | 10.0 | 0.00 | 0.00 | 0.00 | 80 | 1021.7 |
| 20260902030748 | 80 | 209 | 6.0 | 13.0 | 0.00 | 0.00 | 0.00 | 80 | 1022.0 |
| 20260902030243 | 80 | 69 | 6.0 | 9.0 | 0.00 | 0.00 | 0.00 | 79 | 1021.9 |
| 20260902025742 | 80 | 89 | 8.0 | 11.0 | 0.00 | 0.00 | 0.00 | 80 | 1022.0 |
| 20260902025238 | 80 | 65 | 3.0 | 9.0 | 0.00 | 0.00 | 0.00 | 80 | 1022.0 |
| 20260902024732 | 80 | 103 | 4.0 | 7.0 | 0.00 | 0.00 | 0.00 | 80 | 1021.8 |
| 20260902024228 | 80 | 100 | 5.0 | 7.0 | 0.00 | 0.00 | 0.00 | 80 | 1021.9 |
| 20260902023724 | 80 | 112 | 6.0 | 7.0 | 0.00 | 0.00 | 0.00 | 80 | 1021.9 |
| 20260902023219 | 80 | 91 | 9.0 | 9.0 | 0.00 | 0.00 | 0.00 | 81 | 1021.6 |
| 20260902022718 | 80 | 97 | 9.0 | 10.0 | 0.00 | 0.00 | 0.00 | 82 | 1021.8 |
| 20260902022214 | 80 | 90 | 6.0 | 8.0 | 0.00 | 0.00 | 0.00 | 82 | 1021.9 |
| 20260902021710 | 80 | 89 | 4.0 | 7.0 | 0.00 | 0.00 | 0.00 | 82 | 1021.7 |
| 20260902021209 | 80 | 78 | 5.0 | 10.0 | 0.00 | 0.00 | 0.00 | 82 | 1021.7 |
| 20260902020706 | 80 | 82 | 5.0 | 6.0 | 0.00 | 0.00 | 0.00 | 82 | 1021.5 |
| 20260902020201 | 81 | 115 | 6.0 | 8.0 | 0.00 | 0.00 | 0.00 | 83 | 1021.6 |
| 20260902015656 | 81 | 104 | 6.0 | 7.0 | 0.00 | 0.00 | 0.00 | 82 | 1021.7 |
| 20260902015153 | 81 | 84 | 6.0 | 9.0 | 0.00 | 0.00 | 0.00 | 82 | 1021.7 |
| 20260902014648 | 81 | 60 | 2.0 | 7.0 | 0.00 | 0.00 | 0.00 | 82 | 1021.5 |
| 20260902014144 | 81 | 91 | 6.0 | 9.0 | 0.00 | 0.00 | 0.00 | 82 | 1021.3 |
| 20260902013643 | 81 | 45 | 7.0 | 10.0 | 0.00 | 0.00 | 0.00 | 82 | 1021.4 |
| 20260902013139 | 81 | 60 | 8.0 | 9.0 | 0.00 | 0.00 | 0.00 | 81 | 1021.6 |
| 20260902012634 | 81 | 90 | 6.0 | 8.0 | 0.00 | 0.00 | 0.00 | 81 | 1021.4 |
| 20260902012130 | 81 | 115 | 5.0 | 8.0 | 0.00 | 0.00 | 0.00 | 81 | 1021.3 |
| 20260902011626 | 81 | 117 | 8.0 | 10.0 | 0.00 | 0.00 | 0.00 | 81 | 1021.2 |
| 20260902011126 | 81 | 90 | 7.0 | 8.0 | 0.00 | 0.00 | 0.00 | 81 | 1021.1 |
| 20260902010624 | 81 | 93 | 8.0 | 10.0 | 0.00 | 0.00 | 0.00 | 81 | 1021.4 |
| 20260902010120 | 81 | 62 | 9.0 | 10.0 | 0.00 | 0.00 | 0.00 | 80 | 1021.1 |
| 20260902005618 | 81 | 80 | 6.0 | 10.0 | 0.00 | 0.00 | 0.00 | 80 | 1021.0 |
| 20260902005114 | 81 | 99 | 7.0 | 9.0 | 0.00 | 0.00 | 0.00 | 80 | 1021.0 |
| 20260902004613 | 81 | 82 | 7.0 | 10.0 | 0.00 | 0.00 | 0.00 | 79 | 1021.2 |
| 20260902004108 | 81 | 96 | 4.0 | 10.0 | 0.00 | 0.00 | 0.00 | 79 | 1020.8 |
| 20260902003604 | 81 | 74 | 8.0 | 9.0 | 0.00 | 0.00 | 0.00 | 78 | 1020.9 |
| 20260902003059 | 81 | 55 | 4.0 | 8.0 | 0.00 | 0.00 | 0.00 | 78 | 1020.8 |
| 20260902002555 | 81 | 78 | 7.0 | 10.0 | 0.00 | 0.00 | 0.00 | 78 | 1020.6 |
| 20260902002049 | 81 | 97 | 9.0 | 11.0 | 0.00 | 0.00 | 0.00 | 78 | 1020.6 |
| 20260902001544 | 81 | 75 | 8.0 | 14.0 | 0.00 | 0.00 | 0.00 | 78 | 1020.5 |
| 20260902001039 | 81 | 94 | 6.0 | 13.0 | 0.00 | 0.00 | 0.00 | 78 | 1020.6 |
| 20260902000534 | 81 | 75 | 9.0 | 14.0 | 0.00 | 0.00 | 0.00 | 79 | 1020.6 |
| 20260902000030 | 81 | 60 | 5.0 | 10.0 | 0.00 | 0.00 | 0.00 | 80 | 1020.6 |
| 20260901235524 | 81 | 73 | 6.0 | 9.0 | 0.00 | 0.00 | 0.00 | 81 | 1020.8 |
| 20260901235020 | 81 | 78 | 4.0 | 6.0 | 0.00 | 0.00 | 0.00 | 82 | 1020.6 |
| 20260901234518 | 81 | 98 | 4.0 | 8.0 | 0.00 | 0.00 | 0.00 | 82 | 1020.4 |
| 20260901234013 | 81 | 122 | 5.0 | 7.0 | 0.00 | 0.00 | 0.00 | 82 | 1020.4 |
| 20260901233508 | 81 | 96 | 6.0 | 9.0 | 0.00 | 0.00 | 0.00 | 82 | 1020.4 |
| 20260901233005 | 81 | 131 | 4.0 | 7.0 | 0.00 | 0.00 | 0.00 | 82 | 1020.2 |
| 20260901232459 | 81 | 198 | 3.0 | 10.0 | 0.00 | 0.00 | 0.00 | 82 | 1020.2 |
| 20260901231954 | 81 | 195 | 5.0 | 8.0 | 0.00 | 0.00 | 0.00 | 81 | 1019.9 |
| 20260901231450 | 81 | 100 | 8.0 | 14.0 | 0.00 | 0.00 | 0.00 | 81 | 1020.2 |
| 20260901230948 | 82 | 80 | 8.0 | 10.0 | 0.00 | 0.00 | 0.00 | 81 | 1020.2 |
| 20260901230447 | 81 | 82 | 7.0 | 10.0 | 0.00 | 0.00 | 0.00 | 81 | 1020.0 |
| 20260901225942 | 81 | 113 | 6.0 | 10.0 | 0.00 | 0.00 | 0.00 | 81 | 1020.1 |
| 20260901225442 | 81 | 96 | 7.0 | 11.0 | 0.00 | 0.00 | 0.00 | 82 | 1020.0 |
| 20260901224937 | 82 | 148 | 4.0 | 8.0 | 0.00 | 0.00 | 0.00 | 82 | 1019.9 |
| 20260901224433 | 82 | 115 | 9.0 | 13.0 | 0.00 | 0.00 | 0.00 | 82 | 1020.1 |
| 20260901223929 | 82 | 101 | 9.0 | 11.0 | 0.00 | 0.00 | 0.00 | 81 | 1020.0 |
| 20260901223424 | 82 | 237 | 7.0 | 11.0 | 0.00 | 0.00 | 0.00 | 81 | 1020.1 |
| 20260901222920 | 82 | 147 | 5.0 | 15.0 | 0.00 | 0.00 | 0.00 | 80 | 1020.0 |
| 20260901222416 | 82 | 94 | 9.0 | 14.0 | 0.00 | 0.00 | 0.00 | 80 | 1019.9 |
| 20260901221912 | 82 | 65 | 7.0 | 13.0 | 0.00 | 0.00 | 0.00 | 80 | 1019.7 |
| 20260901221408 | 82 | 97 | 14.0 | 16.0 | 0.00 | 0.00 | 0.00 | 79 | 1019.8 |
| 20260901220908 | 82 | 95 | 9.0 | 13.0 | 0.00 | 0.00 | 0.00 | 78 | 1019.8 |
| 20260901220406 | 83 | 102 | 7.0 | 14.0 | 0.00 | 0.00 | 0.00 | 77 | 1019.8 |
| 20260901215905 | 83 | 82 | 7.0 | 14.0 | 0.00 | 0.00 | 0.00 | 77 | 1019.6 |
| 20260901215404 | 83 | 130 | 5.0 | 16.0 | 0.00 | 0.00 | 0.00 | 76 | 1019.7 |
| 20260901214903 | 83 | 108 | 15.0 | 17.0 | 0.00 | 0.00 | 0.00 | 76 | 1019.8 |
| 20260901214402 | 84 | 53 | 10.0 | 16.0 | 0.00 | 0.00 | 0.00 | 76 | 1019.8 |
| 20260901213901 | 84 | 107 | 9.0 | 14.0 | 0.00 | 0.00 | 0.00 | 76 | 1019.9 |
| 20260901213357 | 84 | 72 | 10.0 | 15.0 | 0.00 | 0.00 | 0.00 | 75 | 1019.7 |
| 20260901212856 | 84 | 132 | 12.0 | 17.0 | 0.00 | 0.00 | 0.00 | 75 | 1019.6 |
| 20260901212352 | 84 | 89 | 11.0 | 14.0 | 0.00 | 0.00 | 0.00 | 75 | 1019.6 |
| 20260901211848 | 84 | 111 | 13.0 | 16.0 | 0.00 | 0.00 | 0.00 | 75 | 1019.5 |
| 20260901211344 | 84 | 132 | 12.0 | 16.0 | 0.00 | 0.00 | 0.00 | 74 | 1019.6 |